Theta_e
297 297 297 299 299 299 299 300 301 302 303 303 303 304 305 305 305 305 306 306 306 307 307 308 308 309 309 310 310 311 311 311 311 312 313 314 315 315 315 316 316 317 318 319 319 318 316 314 313 313 313 313 313 313 313 314 314 314 314 314 314 314 313 313 313 314 314 313 314
297 297 298 299 299 299 299 299 300 301 302 303 303 304 304 304 305 305 305 305 306 307 308 308 309 309 309 309 310 310 310 311 311 311 312 313 313 314 314 315 315 316 317 318 319 319 318 317 315 314 313 313 312 312 312 313 313 313 313 313 313 314 314 314 314 314 314 314 315
296 297 297 297 297 297 298 298 298 298 300 301 303 304 304 304 304 305 305 305 306 307 307 308 308 308 309 309 310 310 310 310 311 311 311 312 312 313 313 314 314 315 316 317 318 318 320 321 320 319 318 318 317 316 316 315 314 314 313 312 313 313 314 314 314 315 316 317 317
296 296 296 297 297 296 297 298 297 297 298 301 302 303 304 304 304 304 305 305 306 306 307 307 308 308 308 309 309 309 310 310 310 310 311 311 311 312 312 313 313 314 315 316 317 318 318 319 321 321 320 320 320 320 320 320 319 318 316 316 316 316 317 318 319 319 319 319 319
296 296 297 297 297 297 297 297 297 298 298 299 301 302 303 303 304 304 304 304 305 306 306 307 308 308 308 308 309 308 309 310 310 310 310 310 310 311 311 311 312 313 314 315 316 317 318 318 319 320 320 320 320 320 320 320 320 320 320 320 320 320 320 319 320 320 320 319 319
296 296 296 297 297 297 298 298 298 298 298 300 300 301 301 302 303 303 303 303 304 305 306 307 307 308 308 308 308 308 308 309 309 310 310 309 310 310 311 311 311 312 312 313 314 316 317 318 318 318 318 319 320 320 320 320 320 319 319 319 320 320 320 320 320 320 320 320 319
296 296 296 296 297 297 297 297 298 298 298 298 298 298 299 301 302 302 302 303 304 305 306 307 307 306 307 307 307 307 307 308 308 309 309 309 309 309 310 310 310 311 311 312 313 314 316 317 317 316 317 317 317 318 318 319 319 319 319 319 319 319 319 319 319 320 320 320 320
296 296 296 296 297 297 297 297 297 297 297 297 297 297 299 300 301 302 302 302 303 304 305 306 306 306 306 306 306 306 307 307 307 308 308 308 308 309 309 309 310 310 310 311 312 313 314 316 316 316 315 315 315 315 316 316 317 318 318 319 319 319 319 319 319 319 319 318 318
296 296 296 297 297 297 297 297 297 297 297 296 296 297 299 300 300 301 301 302 303 304 305 305 305 305 305 305 306 306 306 306 307 307 308 308 308 308 308 309 309 309 310 310 311 311 313 315 315 315 315 315 315 315 315 315 315 315 317 317 318 319 319 319 319 319 318 317 317
295 295 296 296 297 297 297 297 297 297 297 296 296 296 298 301 300 300 300 301 302 303 304 304 305 305 305 305 305 305 306 306 306 307 307 307 307 307 308 308 308 308 309 309 310 310 311 312 313 314 315 315 314 314 314 314 314 314 315 316 316 317 317 318 318 318 317 317 316
295 295 296 296 296 297 297 297 297 297 296 296 295 296 297 299 299 300 300 301 301 302 303 304 304 304 304 304 304 305 305 306 306 306 306 306 307 307 307 307 307 307 307 308 309 309 310 310 311 312 314 315 314 314 314 313 313 313 314 315 315 315 315 316 317 317 317 316 315
296 296 296 296 296 296 296 296 296 296 296 295 295 295 296 298 298 298 299 300 300 300 302 303 303 303 303 304 304 304 305 305 305 306 306 305 306 306 307 307 307 307 307 307 308 308 308 309 309 310 312 314 314 314 314 313 313 313 313 313 314 314 314 315 315 315 315 315 314
296 296 296 296 296 296 296 295 295 295 295 295 295 295 295 296 296 297 298 299 299 300 301 302 302 303 303 303 303 304 304 304 305 305 305 305 305 305 305 306 306 306 306 307 307 307 307 308 308 308 310 312 314 314 314 313 313 312 312 312 313 313 313 314 314 315 314 314 314
295 295 295 295 295 295 295 295 295 295 295 294 294 295 295 295 296 297 297 297 299 300 300 301 301 301 302 302 302 303 303 304 304 304 304 304 305 305 305 305 305 305 305 306 306 306 306 306 307 308 308 310 313 314 314 313 313 312 312 312 312 312 312 313 314 314 314 313 312
294 295 295 295 295 294 294 294 294 294 294 294 294 294 295 295 296 298 298 296 298 299 300 300 300 301 301 301 302 302 302 303 303 303 303 303 304 304 304 304 304 304 305 305 305 305 305 305 306 306 308 308 311 313 314 313 313 312 312 312 312 312 312 312 313 313 313 313 312
294 294 294 294 294 294 294 293 294 294 294 294 294 294 294 295 296 298 298 296 298 299 300 299 299 300 300 301 301 301 302 302 302 302 302 302 303 303 303 303 303 304 304 304 304 305 305 305 305 306 306 308 310 312 313 313 313 312 312 312 312 312 312 312 312 312 312 312 312
293 293 294 293 293 293 293 293 293 294 294 293 294 294 294 295 296 297 297 296 297 298 299 298 299 299 299 299 300 300 301 301 301 301 301 301 302 302 302 302 302 303 304 304 304 304 304 304 305 305 306 307 309 311 313 313 313 313 312 312 312 312 312 312 312 312 312 312 312
293 293 293 293 293 293 293 293 293 293 293 293 294 294 295 295 295 296 296 296 296 297 298 297 298 299 299 299 299 300 300 300 300 300 301 301 301 301 302 302 302 302 303 303 303 303 303 303 304 305 305 306 308 310 312 313 313 313 313 312 312 312 312 311 312 312 311 311 311
292 292 292 292 292 293 293 294 293 293 293 293 294 294 294 295 295 295 295 295 296 297 298 297 298 298 298 298 299 299 300 300 300 300 300 301 301 301 301 301 302 302 302 303 303 303 303 303 304 304 304 305 307 309 311 313 313 313 313 312 312 312 311 311 311 311 311 311 311
292 292 292 292 292 293 293 293 293 293 293 293 294 294 294 295 295 295 294 294 295 296 296 296 296 296 297 298 298 299 299 300 300 300 300 300 300 300 301 301 301 302 302 303 303 302 302 302 303 303 304 305 306 308 310 312 312 312 312 312 312 312 312 311 311 311 311 311 310
292 292 292 292 292 292 292 293 293 293 293 293 294 294 294 295 295 295 294 294 294 294 294 294 294 295 297 297 298 298 299 299 300 300 300 300 300 300 300 300 301 301 302 302 302 302 302 302 303 303 304 304 305 307 309 310 311 311 311 311 312 312 312 311 311 311 311 310 310
292 292 292 292 292 292 293 293 293 293 293 293 293 294 294 294 295 295 295 295 295 294 294 294 293 294 296 297 297 298 299 299 299 299 300 300 300 300 300 300 300 301 301 302 302 302 302 302 302 303 303 304 305 307 308 309 309 310 310 310 311 311 312 312 311 311 311 310 310
292 292 292 292 293 293 294 293 293 293 293 293 293 294 294 294 295 295 295 295 295 294 294 293 293 294 295 297 297 298 298 298 298 299 299 300 299 299 300 300 300 300 301 301 302 302 302 302 302 302 303 303 305 306 307 308 308 308 308 308 309 310 311 312 311 311 311 311 310
292 292 292 292 292 293 293 293 292 292 292 292 292 293 293 294 294 294 295 294 294 294 293 293 293 294 295 297 297 297 297 297 297 298 298 299 299 299 299 299 299 300 300 301 302 302 302 302 302 302 303 303 304 306 307 308 307 307 307 307 307 308 309 311 311 311 311 311 310
292 292 293 292 292 292 292 292 292 292 292 292 292 293 293 293 293 294 294 294 294 293 293 293 293 294 296 299 298 297 296 296 297 297 297 298 297 298 298 298 299 299 300 301 303 303 303 303 303 302 303 303 304 305 307 307 307 307 306 306 306 307 307 309 310 310 311 310 311
291 291 292 292 292 292 292 292 292 292 292 292 292 292 293 293 293 293 293 293 293 293 293 293 293 294 296 298 297 297 296 296 297 297 297 297 297 297 296 297 298 299 300 302 303 303 304 304 304 304 303 303 304 305 305 306 306 306 306 305 305 305 306 307 307 309 309 310 310
290 290 291 291 292 292 291 291 292 292 292 292 292 292 292 293 292 292 292 292 292 293 293 293 293 294 295 295 297 297 296 296 297 297 298 298 297 297 297 297 297 298 300 302 302 303 303 304 304 304 304 303 303 304 305 305 305 305 305 305 305 305 305 306 306 307 308 308 310
289 290 290 291 291 291 291 291 291 291 291 292 292 292 292 292 292 292 292 292 292 292 292 292 293 293 293 293 295 296 296 296 297 297 297 298 298 297 297 296 297 298 300 302 302 303 303 303 304 304 304 303 303 304 304 304 304 304 304 304 304 304 304 305 305 306 306 307 308
289 289 289 290 290 291 291 291 291 291 291 292 292 292 292 292 292 292 291 291 292 292 292 292 293 293 292 291 293 295 297 297 297 297 297 298 298 298 297 297 297 298 300 302 302 302 303 303 303 303 304 303 303 303 303 303 303 304 304 304 304 304 304 304 305 305 305 305 306
289 289 289 289 290 290 291 291 291 291 292 292 292 292 292 292 291 291 291 291 291 292 293 293 292 292 291 291 292 293 295 296 296 296 297 297 297 297 297 297 297 298 299 301 302 302 302 302 302 303 303 303 302 302 302 302 302 303 303 303 303 303 303 304 304 304 304 304 304
289 289 289 289 289 290 290 291 291 291 292 292 292 291 291 291 291 291 291 291 292 293 293 293 292 292 291 291 292 293 295 296 296 296 296 296 297 297 297 297 297 297 299 300 301 301 302 302 302 302 303 302 302 301 301 301 301 302 302 302 302 302 303 303 304 304 303 303 303
289 289 289 289 289 290 290 291 291 291 291 291 291 291 291 291 291 291 291 291 292 292 292 292 292 292 291 291 291 293 295 296 296 296 296 296 297 297 297 297 297 297 299 300 300 301 301 301 301 302 302 302 301 301 300 300 301 301 301 301 301 301 301 302 303 303 303 302 303
289 289 289 289 289 290 290 291 291 291 291 291 291 291 291 291 291 291 291 291 292 292 291 291 292 291 291 291 291 292 293 295 296 296 296 296 297 297 297 296 297 297 298 300 300 300 301 301 301 301 301 301 300 300 300 299 299 299 299 299 299 300 300 301 302 303 303 302 303
288 288 288 289 289 290 290 290 291 291 291 291 291 291 291 291 290 291 290 291 291 291 291 291 291 291 291 291 291 292 293 295 295 295 296 296 296 296 296 296 296 297 298 299 300 300 300 300 300 300 300 300 299 299 299 297 297 297 296 296 297 298 299 300 301 302 303 303 302
288 288 288 288 289 289 290 290 290 290 290 290 291 291 291 291 290 290 291 292 292 291 291 291 291 291 291 292 293 294 294 295 295 295 296 296 295 296 296 295 296 297 298 299 299 300 300 300 300 299 299 299 298 298 297 296 296 295 295 295 296 297 298 299 300 301 302 302 302
288 288 288 288 289 289 290 290 290 290 290 290 290 290 290 290 290 291 291 292 292 291 290 291 291 291 291 291 292 293 294 295 295 295 295 295 295 295 295 295 296 296 297 298 299 299 299 300 299 299 298 298 297 297 296 296 295 295 295 295 295 295 296 297 299 300 301 302 302
288 288 288 288 288 289 289 290 290 289 289 289 290 290 290 290 290 291 291 291 291 290 290 290 290 290 290 290 291 292 293 294 295 295 295 295 295 295 295 295 295 296 297 298 298 299 299 299 299 299 297 296 296 296 295 295 295 294 294 294 294 294 295 296 298 299 300 301 301
288 288 288 288 289 289 289 290 289 289 289 289 289 290 290 290 290 290 291 291 290 289 290 290 290 290 290 290 291 291 291 293 294 294 295 295 295 295 295 295 295 296 296 297 298 298 299 299 299 298 297 296 296 295 295 295 294 294 294 293 294 294 295 296 297 298 299 300 301
288 288 288 288 289 289 289 289 289 289 289 289 289 289 289 290 290 290 291 291 290 290 289 289 290 290 291 291 291 291 291 291 292 293 294 294 295 295 296 295 295 295 296 297 297 298 298 299 299 298 297 296 296 295 295 294 294 293 293 293 293 294 294 295 296 297 298 298 300
288 288 288 288 289 289 289 289 289 289 289 289 289 289 289 290 290 291 291 291 290 290 290 290 290 291 292 293 291 290 290 290 291 292 293 294 295 296 296 295 295 295 296 296 297 297 298 298 298 298 297 296 295 295 295 294 293 293 292 293 293 293 294 295 296 297 297 297 298
288 288 288 288 289 289 289 288 289 289 289 289 289 289 289 290 290 291 291 290 290 290 290 290 291 291 292 293 291 290 290 290 290 291 292 293 294 295 295 295 294 295 295 296 296 297 297 298 298 298 297 296 295 295 294 294 293 292 292 292 293 293 294 294 295 296 297 296 297
Wind_Speed
3 3 3 3 3 2 2 2 2 3 3 3 4 4 4 5 5 5 5 5 5 5 5 6 6 7 9 11 12 12 13 13 14 14 14 14 14 14 14 13 14 14 15 15 12 8 3 4 4 4 4 4 5 6 6 6 6 7 6 6 6 7 7 8 7 7 7 8 8
3 3 3 4 4 3 2 2 2 2 3 3 3 4 4 4 5 5 5 5 5 5 5 5 7 8 10 12 12 12 12 12 13 14 14 14 14 14 14 13 14 14 14 14 14 11 7 4 3 3 3 3 4 5 6 7 7 7 8 9 7 6 6 7 7 8 8 9 9
3 3 3 3 3 3 3 3 2 2 2 3 3 3 4 4 4 5 5 5 6 6 6 6 7 8 10 11 11 11 11 12 13 13 13 13 14 15 15 13 14 14 14 13 13 12 11 9 6 4 3 3 3 3 4 5 6 7 8 9 7 6 6 6 7 7 6 6 7
3 3 3 3 4 4 3 3 3 3 3 2 3 3 4 4 4 4 5 6 6 6 6 6 7 8 9 10 11 11 11 12 12 12 12 13 14 15 15 15 15 14 14 13 13 13 13 12 8 7 6 7 6 5 4 3 2 3 4 5 4 4 4 5 4 3 2 2 2
3 3 2 3 3 4 3 3 3 3 3 2 3 3 3 4 4 4 5 6 6 6 7 8 7 8 8 10 11 12 12 12 12 12 12 13 13 14 15 15 15 14 14 14 14 13 12 11 8 7 7 8 6 6 7 7 6 4 3 1 1 1 2 2 3 3 3 2 1
3 3 3 3 3 3 3 3 3 3 3 2 3 3 3 4 4 5 6 6 6 7 8 8 8 8 9 10 11 11 11 11 11 11 12 12 13 14 15 15 15 14 13 14 14 13 12 10 7 7 7 7 7 8 9 9 7 5 4 3 3 3 3 3 3 3 4 3 3
2 2 3 3 3 3 3 4 3 3 2 2 3 4 4 4 5 6 7 6 6 7 7 7 8 9 9 10 10 11 11 11 11 11 12 12 13 13 14 14 15 14 14 14 14 13 12 9 7 7 7 8 7 10 12 12 10 7 6 5 3 3 3 3 3 4 5 6 7
2 2 3 3 3 3 4 4 3 3 2 3 4 4 5 5 6 7 7 7 7 7 7 6 8 9 10 10 10 10 11 11 11 11 12 12 13 13 14 14 14 14 14 14 14 14 12 8 7 7 7 8 7 9 12 15 14 12 10 8 6 5 4 4 4 4 5 7 8
2 2 3 3 3 4 4 4 3 3 3 3 4 4 5 5 6 6 7 7 7 7 7 7 9 10 10 11 11 10 10 10 11 11 11 12 13 13 13 13 14 14 14 13 14 14 13 9 8 7 7 7 8 10 12 15 15 14 12 10 9 8 8 7 7 7 7 7 8
2 3 3 3 3 4 4 4 3 3 3 3 4 4 5 6 6 6 6 6 6 7 7 8 9 10 10 10 10 10 10 10 10 11 11 12 12 13 13 12 14 14 14 13 13 13 12 10 9 9 8 8 10 11 13 14 14 14 12 9 10 11 11 10 10 9 9 8 8
2 2 2 3 3 4 4 3 3 3 3 3 3 4 4 5 5 5 5 5 6 7 8 8 9 9 9 9 9 10 10 9 9 10 11 12 12 13 13 13 13 14 14 13 12 11 11 10 11 11 11 9 10 11 12 13 13 13 12 10 11 12 12 12 11 10 10 9 10
2 2 2 3 3 3 3 3 3 3 3 3 3 3 4 3 4 4 5 6 6 7 7 8 9 9 9 8 9 9 9 9 10 10 10 11 12 12 13 13 13 14 14 13 12 11 10 11 12 13 13 11 9 9 10 12 13 13 13 12 12 12 12 12 11 10 9 9 10
2 2 2 3 3 3 3 3 3 2 2 3 3 3 3 3 3 4 5 6 6 6 6 7 8 8 8 8 9 9 9 9 10 10 10 11 11 12 12 12 13 13 13 13 12 12 11 12 13 14 14 13 9 9 10 12 12 12 13 13 13 12 12 12 11 10 9 10 10
1 2 2 2 3 2 2 2 2 2 2 3 3 3 4 3 3 4 4 5 6 6 6 6 7 7 8 9 9 9 10 9 10 10 10 10 11 11 12 12 13 13 12 12 12 13 13 13 14 14 14 14 11 10 11 11 11 12 12 13 13 13 12 12 12 11 10 10 10
1 2 2 2 2 2 2 2 2 2 2 3 3 3 3 3 3 4 4 4 5 5 5 6 6 6 7 9 9 9 9 9 10 10 10 11 11 11 12 12 13 13 12 12 12 13 13 14 14 14 14 14 12 11 10 11 11 11 11 12 12 12 12 12 12 11 11 10 9
1 2 2 2 2 2 2 2 2 2 2 3 3 3 3 3 3 4 4 4 4 4 5 6 6 6 7 8 8 8 8 9 9 10 10 10 11 11 12 12 12 13 13 13 13 13 13 13 13 13 13 13 13 11 10 10 10 10 11 11 12 12 12 12 12 11 11 10 10
1 2 2 2 2 2 2 2 2 2 2 3 3 3 3 3 3 3 4 4 4 4 5 6 6 6 6 7 7 7 7 8 8 9 9 10 10 11 11 12 12 12 13 13 13 14 14 13 13 13 13 13 12 11 10 10 9 10 10 11 11 12 12 12 12 11 11 11 10
1 1 2 2 2 2 2 2 2 2 3 3 3 3 3 3 3 3 3 4 4 5 5 5 5 6 7 7 7 7 7 7 8 8 8 9 9 10 11 11 11 11 12 12 13 13 14 14 13 13 12 12 12 12 11 10 9 9 9 10 10 11 12 12 12 11 11 12 11
1 1 1 2 2 2 2 2 2 2 3 3 3 3 3 3 3 3 3 3 4 5 5 5 5 6 7 7 7 7 7 7 8 8 8 8 9 9 10 10 10 11 11 11 12 13 13 13 13 13 12 12 12 12 11 10 9 9 9 9 9 10 11 11 12 11 11 11 12
0 1 1 1 1 2 2 2 2 2 2 3 3 3 3 3 3 3 3 3 4 4 5 5 5 6 6 7 8 7 7 6 7 7 8 7 8 8 9 10 10 10 10 11 11 12 13 13 13 13 12 12 12 12 12 12 11 10 10 9 9 9 9 10 11 11 11 11 11
0 0 1 1 1 1 2 2 2 2 2 3 3 3 3 3 2 2 2 3 3 4 4 4 5 5 6 7 8 8 7 6 7 7 7 7 7 8 8 9 9 9 10 10 11 12 12 12 13 12 12 12 12 12 12 12 12 12 11 10 10 9 9 9 10 10 10 10 11
1 1 1 1 1 1 1 2 2 2 2 3 3 3 3 2 2 1 1 2 2 3 3 3 4 5 6 7 7 7 7 7 7 7 7 7 7 7 8 8 9 9 10 11 11 12 12 12 12 12 12 11 11 12 12 12 12 12 12 12 11 11 10 9 9 10 10 10 10
2 1 1 1 1 1 1 2 2 2 2 2 3 3 3 2 2 1 1 1 1 2 2 2 3 4 5 6 7 7 7 7 7 7 7 7 7 7 8 8 9 9 10 10 11 11 11 11 11 11 11 10 10 11 11 12 12 12 12 13 12 12 11 10 10 10 9 9 9
2 2 1 1 1 1 1 1 2 2 2 2 3 3 3 3 2 1 1 1 1 1 1 1 2 3 4 5 6 6 7 7 8 8 8 7 7 7 8 8 8 9 9 9 12 13 12 9 9 9 9 9 9 9 10 10 11 11 12 12 12 12 12 11 11 10 10 10 8
3 2 1 1 1 1 1 1 1 2 2 2 3 3 3 3 2 1 1 1 1 0 1 1 1 2 3 5 5 6 6 7 7 8 8 7 7 7 7 7 8 8 8 10 16 18 17 14 11 9 8 8 8 8 8 9 10 11 11 11 12 12 12 12 12 11 11 10 9
3 2 2 2 1 0 0 1 1 1 2 2 3 3 3 3 2 1 1 1 1 1 0 1 1 2 3 4 5 5 6 6 7 7 7 7 8 8 8 7 7 7 8 13 18 20 19 18 16 12 9 7 7 7 7 8 9 10 10 10 11 11 11 12 12 12 11 10 10
3 2 2 2 1 1 0 1 1 1 2 2 3 3 3 3 2 1 1 1 1 1 1 1 1 2 2 3 4 5 5 6 6 7 7 7 7 8 8 8 8 8 10 16 19 20 20 19 18 15 12 7 7 7 7 7 8 9 9 9 10 11 11 11 12 12 12 11 10
2 2 2 2 2 1 1 0 0 1 1 2 2 3 3 3 2 2 2 2 2 2 1 1 1 1 2 2 4 5 5 6 6 6 6 7 6 7 8 9 8 10 13 19 20 20 20 19 18 17 14 10 7 6 6 7 7 8 8 8 9 10 10 10 10 10 11 12 11
2 2 2 2 2 2 1 0 0 1 1 2 2 3 3 3 2 2 2 2 2 2 1 1 1 1 2 2 3 4 5 6 6 6 6 6 6 6 8 9 9 12 15 20 20 20 20 20 19 17 15 12 7 5 5 6 6 7 7 7 8 9 9 9 9 10 10 11 11
2 2 2 2 2 2 2 1 1 0 1 1 2 3 3 3 3 3 2 2 2 1 1 1 1 2 2 2 3 4 4 5 5 6 6 6 6 6 7 9 9 11 15 20 20 20 20 20 19 18 16 14 9 6 5 5 6 6 6 7 8 9 9 9 10 10 10 10 10
2 2 2 2 2 2 2 2 1 1 0 1 2 2 2 2 2 2 2 2 2 1 1 2 2 2 2 2 2 3 4 4 5 5 6 6 6 6 6 7 9 11 14 19 20 20 20 20 19 18 17 15 10 7 6 6 7 7 7 7 9 9 9 9 9 10 11 11 10
2 2 2 2 2 2 2 1 1 1 1 1 1 2 2 2 2 2 2 2 2 2 2 2 2 2 2 2 2 3 3 4 5 5 6 6 6 5 5 6 8 10 14 19 19 20 20 20 19 18 17 15 11 8 8 8 8 7 7 8 9 9 9 8 8 9 10 10 10
2 2 2 2 2 2 2 1 1 1 1 1 1 1 1 1 1 2 2 2 2 2 2 2 2 2 2 2 2 2 3 4 4 5 6 7 6 5 5 5 6 10 14 18 18 19 19 20 19 18 17 16 10 8 8 8 7 6 6 7 8 8 9 9 8 9 9 9 9
2 2 2 2 2 2 2 2 1 1 2 1 0 1 1 1 1 2 2 2 2 1 1 1 1 1 1 1 1 2 3 4 4 4 5 6 6 6 5 5 5 9 14 17 17 18 19 19 19 18 17 14 9 7 7 7 6 6 6 7 7 8 9 9 8 9 9 9 8
2 2 2 2 2 2 2 2 1 1 2 1 0 0 1 1 1 1 1 2 2 2 1 1 1 1 1 1 1 2 3 3 4 4 4 5 5 5 5 5 5 9 14 16 17 18 18 18 18 17 16 12 8 7 7 7 6 7 7 7 8 8 9 9 9 8 8 8 8
3 2 2 2 2 2 2 2 1 1 1 1 1 0 0 1 1 1 1 2 2 2 2 2 2 2 2 1 1 2 2 3 3 4 4 4 4 5 5 5 6 9 13 15 16 17 17 18 17 16 14 10 7 6 6 6 6 7 8 8 8 8 8 8 8 8 8 8 8
3 2 2 2 2 2 2 2 2 2 1 1 1 1 0 0 0 1 1 1 2 2 2 2 2 2 2 1 1 1 1 2 3 3 4 4 4 4 4 4 5 7 11 14 16 17 17 17 17 15 13 9 7 6 6 6 6 6 7 8 7 8 7 7 7 7 8 9 9
3 3 2 2 2 2 2 2 2 2 1 1 1 1 1 0 0 0 1 1 1 1 1 1 1 1 1 1 1 1 1 2 2 3 3 3 3 3 4 4 4 6 8 13 15 16 17 17 17 15 12 8 7 7 6 6 6 7 7 7 6 7 7 6 5 6 7 9 10
4 3 3 2 2 2 2 2 3 2 1 1 0 0 0 0 0 1 1 1 0 0 1 1 1 1 1 1 1 1 1 1 2 3 3 3 3 4 4 4 4 5 8 12 14 15 16 17 17 15 13 9 7 6 6 6 7 7 7 6 6 6 7 6 5 6 6 8 10
4 4 3 3 2 2 2 3 3 2 2 1 1 0 0 0 1 1 1 1 0 0 0 0 1 1 1 1 1 1 1 1 1 2 2 2 3 4 4 4 4 5 7 11 13 15 16 16 16 15 13 8 7 6 5 5 6 7 7 7 6 6 6 6 6 6 6 6 8
4 4 3 3 3 2 2 2 3 2 2 2 1 1 1 1 1 1 1 1 0 0 0 0 1 1 1 1 1 1 1 2 1 1 1 2 2 3 4 4 4 5 6 9 12 14 15 16 16 16 14 9 7 6 5 5 6 7 8 8 7 6 6 6 6 6 6 6 6
Wind_Direction
343 346 342 333 327 322 317 317 325 328 330 328 324 323 323 323 323 323 325 327 326 325 324 326 328 328 328 330 332 334 336 338 339 339 340 342 343 344 345 347 349 350 350 350 348 340 305 253 248 248 249 251 257 259 260 258 257 256 256 256 255 254 253 250 247 242 239 239 242
340 341 339 336 333 330 326 321 325 327 330 330 326 325 324 325 323 324 325 327 325 324 323 325 328 328 329 331 333 335 337 339 341 341 343 345 346 347 348 349 350 351 351 351 352 351 343 317 278 259 253 247 248 252 254 255 253 254 255 255 257 258 258 256 252 248 243 241 238
333 338 341 340 337 334 328 322 319 320 323 332 331 328 327 327 325 325 325 325 323 323 324 328 329 329 330 332 334 336 338 340 342 344 346 347 349 350 351 351 351 352 352 352 353 353 350 345 337 322 306 292 278 264 254 250 244 244 246 249 252 256 259 260 256 252 248 242 234
329 336 340 337 331 327 321 317 313 310 315 333 336 333 331 330 328 327 325 324 324 326 329 331 330 331 332 333 335 337 339 341 344 346 349 349 351 352 353 353 354 353 352 351 352 352 351 350 347 342 338 334 334 335 333 323 290 259 244 242 245 251 259 268 270 278 287 267 242
324 330 333 328 320 316 312 311 308 305 307 330 348 345 339 335 332 330 329 329 330 331 331 333 333 333 334 335 336 338 340 343 346 349 351 352 353 354 355 356 356 354 353 352 351 350 351 352 353 350 345 339 339 342 343 343 341 340 338 329 320 317 318 322 327 332 333 325 323
315 322 324 318 312 309 309 308 304 301 307 340 2 358 347 340 338 337 335 332 330 330 331 334 337 337 337 337 338 340 342 344 347 350 352 354 354 355 357 357 357 356 354 353 351 350 350 353 357 357 353 348 348 347 346 342 345 349 353 355 355 354 353 349 343 339 337 335 334
307 317 319 314 310 311 311 309 304 308 326 8 16 4 349 341 341 340 338 334 331 332 335 339 341 341 340 340 340 341 343 345 346 350 353 355 355 356 357 358 357 357 356 354 352 351 350 352 358 0 359 356 356 355 354 353 352 351 352 356 358 356 353 353 354 353 351 351 351
313 320 318 313 313 316 316 312 315 330 354 20 18 3 347 340 344 345 343 338 336 336 339 343 343 342 341 342 341 342 344 345 346 350 353 355 355 356 358 358 358 358 357 356 354 353 351 350 358 3 4 2 360 359 359 359 359 357 356 357 358 358 359 2 4 4 4 3 3
326 326 323 321 323 323 322 319 332 352 8 21 16 359 347 345 350 351 348 341 338 339 342 345 344 343 343 343 343 343 344 345 347 349 352 354 356 357 358 359 359 359 358 357 356 354 354 353 356 2 7 9 5 2 2 2 2 1 360 0 0 2 4 6 6 8 10 10 11
328 329 329 326 325 325 326 329 346 0 11 21 11 355 346 350 356 355 350 340 339 343 347 348 345 345 344 344 344 344 344 345 347 349 352 355 356 358 360 0 360 359 359 358 356 356 356 357 355 357 4 13 10 7 5 4 3 2 2 3 4 5 6 7 5 6 8 11 12
326 329 328 323 323 327 333 342 351 358 7 17 5 350 342 348 356 356 349 342 345 349 351 350 347 346 345 344 344 343 343 345 347 349 352 356 357 359 0 2 1 1 0 360 358 357 357 358 355 355 357 8 12 10 7 5 4 4 4 4 6 7 8 8 6 5 5 6 10
325 328 325 320 324 333 343 350 350 351 359 10 358 344 335 341 352 353 350 348 352 354 354 353 350 348 346 345 344 343 343 345 348 350 353 356 358 359 1 2 3 2 1 1 360 359 358 358 356 354 354 360 9 12 10 8 8 7 6 6 7 9 10 8 6 5 4 3 7
326 330 329 324 331 342 352 354 349 348 354 3 351 338 331 335 347 353 353 353 357 357 355 356 354 351 349 347 345 344 344 345 348 351 354 357 358 360 2 3 3 3 3 2 1 0 359 357 357 355 353 353 2 9 12 10 11 10 8 8 9 10 10 9 6 5 6 6 7
332 335 331 329 338 348 358 359 350 347 351 356 344 335 329 333 344 352 355 356 360 359 358 358 358 356 353 351 348 346 346 347 350 353 356 358 360 1 2 3 3 3 3 2 2 1 0 358 356 355 354 351 356 4 11 11 12 12 11 10 10 11 11 10 7 6 7 9 10
337 335 333 335 344 352 0 2 349 345 347 348 338 331 329 332 341 349 355 359 2 1 360 1 1 359 356 354 351 348 348 350 353 355 358 360 1 2 3 4 3 3 3 2 2 2 1 358 356 354 353 351 352 359 7 11 12 13 13 13 12 11 11 11 9 8 8 9 11
337 334 337 345 350 355 357 359 345 341 341 340 332 330 331 332 340 347 354 359 1 1 2 4 4 1 359 358 354 351 351 354 357 359 0 1 2 3 3 4 3 2 2 3 3 2 1 358 356 354 352 351 350 354 2 10 12 14 15 15 14 13 11 10 10 9 8 8 10
337 336 340 350 352 353 351 349 343 338 336 333 330 329 330 332 339 347 353 357 359 1 3 7 7 4 2 0 357 355 354 356 360 2 2 3 3 3 4 4 2 2 2 3 4 2 0 358 355 353 352 351 350 352 358 7 11 14 15 17 17 16 13 11 10 10 10 8 9
335 336 342 352 352 349 344 341 339 336 333 329 326 325 326 330 338 345 351 354 356 359 3 6 9 8 6 2 359 358 357 358 1 3 4 4 5 5 4 3 1 1 2 4 5 3 0 357 355 353 351 351 350 352 356 4 10 13 15 17 20 19 17 14 12 11 11 11 9
331 336 341 345 344 341 337 335 333 330 325 320 320 320 322 326 335 345 351 353 356 359 3 5 10 11 8 3 0 359 359 359 1 3 4 5 5 5 4 2 0 0 2 6 6 5 1 357 355 353 351 350 351 353 356 2 8 12 14 16 20 22 22 19 15 14 14 15 13
312 327 329 326 328 327 325 324 321 317 312 311 313 315 318 321 333 346 353 351 354 359 4 6 9 11 9 4 1 0 0 1 1 2 4 5 7 7 5 2 359 360 2 6 8 7 3 358 356 354 352 350 351 354 357 1 6 10 13 14 17 22 24 23 20 18 18 19 17
221 266 284 295 304 308 309 306 307 304 304 304 306 307 309 312 326 339 347 351 357 1 4 4 6 9 10 6 3 1 1 1 0 1 3 6 9 8 5 1 359 359 3 7 10 9 6 0 357 355 353 351 351 354 358 3 6 9 11 11 12 16 22 26 25 23 22 22 22
199 216 239 260 278 290 296 300 300 300 300 299 299 300 301 302 308 318 336 353 4 5 5 1 2 6 10 10 6 3 1 1 0 0 1 5 9 9 6 1 359 1 5 9 10 9 6 2 358 356 354 351 351 355 360 5 6 8 10 9 8 11 15 22 26 26 26 25 26
188 196 212 237 257 281 295 300 303 306 306 306 305 303 298 292 286 291 321 3 13 9 5 359 358 2 7 10 7 4 2 2 0 360 0 3 8 9 8 3 1 3 7 10 11 10 7 2 359 356 354 351 351 355 0 6 7 9 9 9 7 8 10 15 20 24 26 27 28
175 178 193 226 246 271 291 305 314 319 319 317 315 310 305 295 289 295 328 5 12 12 9 5 357 359 6 12 9 6 4 3 0 359 360 2 7 10 9 5 3 4 7 10 12 12 11 6 1 357 353 350 350 354 0 7 8 10 10 10 8 7 7 10 13 17 21 24 25
163 165 176 211 228 256 300 316 324 325 322 320 320 317 313 306 306 321 351 356 350 1 24 24 2 2 9 16 13 9 6 3 360 358 359 2 7 10 11 8 5 4 6 10 13 14 14 13 10 4 356 350 350 354 0 8 10 11 11 12 9 7 6 8 9 12 14 18 20
155 159 171 193 196 207 300 314 318 321 323 324 326 321 315 306 314 343 9 358 342 350 39 47 19 12 14 20 18 14 10 5 359 356 357 1 8 12 13 10 5 3 5 10 13 14 15 14 14 12 6 353 351 355 1 8 11 10 10 13 11 9 7 7 8 9 9 10 12
150 160 173 184 174 169 198 281 316 328 331 328 327 317 310 306 324 0 15 2 356 0 22 45 36 25 20 23 23 21 16 9 359 355 354 356 7 14 17 13 6 3 5 9 12 14 14 14 15 15 13 2 356 356 1 8 9 9 10 14 13 11 9 8 7 7 8 6 5
151 163 175 175 164 162 169 246 341 339 334 325 321 315 313 318 345 9 16 6 6 10 15 21 34 35 29 25 27 25 21 12 2 355 351 351 5 16 20 14 7 3 5 9 12 13 14 14 14 15 16 12 1 358 1 7 9 9 10 14 14 12 10 8 7 8 8 6 4
154 162 171 171 162 157 153 155 40 328 320 318 319 321 325 336 358 11 12 6 9 11 12 7 30 37 35 28 29 29 24 15 4 355 350 348 1 18 24 18 8 3 4 8 11 13 14 14 14 15 17 16 9 3 4 9 10 11 11 14 15 14 11 8 8 9 9 7 4
154 160 167 171 157 150 147 159 168 198 305 324 329 332 337 348 4 10 10 0 359 358 4 24 50 47 41 32 34 32 28 19 7 356 351 348 0 18 28 23 9 3 4 8 11 12 14 14 14 15 16 18 14 10 9 11 13 12 13 13 14 14 13 10 10 10 11 9 6
153 160 165 161 149 146 151 166 164 159 99 351 340 338 344 355 7 9 2 347 341 347 7 31 50 50 45 35 37 36 33 25 12 1 353 350 360 17 30 28 13 5 5 8 11 12 13 14 14 15 16 18 16 14 14 16 16 16 15 14 14 14 13 12 11 11 12 12 8
157 161 162 151 146 147 151 164 158 144 121 44 343 337 342 355 2 2 354 338 338 355 15 27 40 44 40 32 33 36 36 32 20 8 358 353 357 11 27 31 16 9 7 9 11 12 13 14 14 15 16 17 14 14 16 19 18 17 16 15 15 14 13 13 11 12 13 15 11
158 162 161 151 149 149 151 155 153 140 127 103 350 333 337 351 5 4 354 337 340 359 24 32 42 47 47 37 31 32 35 38 30 17 4 356 357 8 23 32 20 11 9 11 13 13 14 14 15 16 16 15 12 11 13 17 16 14 13 12 12 13 13 13 11 12 13 16 15
160 163 161 153 150 149 148 148 147 137 127 116 53 331 336 3 23 15 356 332 330 347 21 40 50 61 68 68 52 37 34 38 41 28 11 359 358 6 19 30 22 13 11 12 14 15 15 15 16 16 16 14 10 7 9 13 12 10 9 7 8 10 12 12 11 11 11 15 18
158 160 158 152 147 144 140 140 139 131 125 120 114 346 345 12 45 29 356 327 329 342 5 19 26 33 43 55 59 46 38 37 47 41 27 8 1 7 18 29 26 17 14 13 15 16 17 18 18 17 16 14 9 7 8 11 11 9 8 7 7 7 9 10 10 9 8 10 16
153 155 154 148 140 137 133 132 130 122 116 120 120 76 347 351 52 48 7 337 340 351 2 12 17 16 11 8 35 44 42 38 49 49 40 22 9 9 15 27 28 21 17 15 16 17 18 19 20 19 17 13 10 8 9 12 12 9 7 7 6 5 5 6 7 6 5 6 12
148 147 145 139 134 132 132 130 120 113 109 118 128 140 150 321 51 52 28 3 357 354 357 13 17 8 353 341 10 38 48 47 52 52 46 34 19 12 15 25 30 25 21 18 17 18 18 20 22 22 20 13 10 11 12 14 12 9 6 5 3 2 2 3 5 6 5 4 7
144 141 137 134 132 133 133 128 119 114 116 129 147 152 156 138 114 82 60 35 9 353 350 7 10 351 325 319 342 15 35 50 61 56 48 39 27 18 18 25 32 31 26 21 19 18 19 20 23 24 23 17 12 12 13 14 12 9 6 3 0 359 359 359 2 5 5 3 3
141 139 138 135 134 135 134 129 126 125 129 142 146 137 125 125 137 129 115 94 57 353 347 357 339 318 309 324 357 8 7 21 64 63 56 43 33 27 27 30 34 36 32 26 21 20 19 20 23 25 25 21 14 13 14 14 11 9 6 2 359 358 357 358 360 3 4 1 2
139 139 139 138 137 136 133 131 130 133 137 138 133 121 132 173 176 163 141 119 108 40 319 318 305 304 312 347 24 14 358 346 40 71 69 53 39 34 34 37 38 38 34 29 24 21 19 20 23 25 26 24 17 13 14 14 12 9 7 3 0 358 357 357 358 359 359 358 1
138 140 142 143 139 136 135 133 135 136 140 145 156 176 198 209 183 154 128 107 98 280 264 266 286 298 316 11 47 29 0 340 347 55 84 70 46 39 38 41 41 40 36 32 26 22 20 20 23 25 26 27 20 15 13 14 12 10 8 4 0 357 355 354 355 356 356 355 358